Wind_Speed
91 91 91 91 90 91 91 90 89 89 88 89 90 90 89 88 88 88 89 89 89 89 89 88 84 78 75 74 77 79 79 79 76 70 66 64 64 63 63 63 62 61 61 63 64 64 65 68 68 67 69 70 69 72 74 74 72 68 66 64 63 61 60
89 90 90 89 88 89 89 89 88 87 86 87 88 89 87 86 86 86 87 87 87 87 86 85 83 78 74 72 73 76 76 76 73 68 63 62 63 62 62 62 62 58 55 56 61 64 66 68 68 67 69 69 66 68 72 73 72 68 66 64 61 60 59
87 88 88 87 87 87 87 87 87 86 85 86 87 87 86 84 83 84 84 84 84 84 83 82 80 77 73 70 70 72 74 73 70 65 61 60 61 61 62 63 61 55 51 52 58 64 66 67 67 68 69 67 63 64 68 70 70 69 67 64 60 58 58
84 85 86 85 84 85 85 85 85 84 84 84 85 86 84 82 81 80 80 80 81 81 80 78 76 75 72 68 66 69 71 69 66 62 58 58 60 61 61 62 58 52 50 51 55 62 66 66 66 68 69 65 60 61 65 66 67 67 66 63 59 57 56
79 82 83 82 81 81 81 82 82 82 81 81 82 83 82 80 78 77 76 77 78 78 76 74 72 71 69 66 65 66 67 66 63 59 56 57 60 61 61 59 56 52 51 51 54 60 64 65 65 67 67 62 58 59 63 65 65 66 65 62 59 56 55
76 78 80 80 79 78 78 78 77 77 77 76 77 79 79 76 74 73 73 74 74 73 72 71 69 68 67 65 64 64 64 62 60 57 56 57 59 59 59 57 55 53 51 52 54 58 61 63 64 64 64 61 57 56 60 63 65 66 64 61 58 56 54
74 76 77 77 78 78 77 76 75 74 74 72 72 73 73 71 69 69 69 69 69 68 68 68 67 66 65 64 63 62 61 60 58 57 56 57 57 58 57 56 54 52 51 52 54 56 59 61 62 61 60 60 57 56 58 60 62 65 66 62 58 56 53
71 73 74 75 76 77 77 75 74 73 72 70 69 69 68 66 65 66 65 64 64 65 66 66 65 64 63 63 61 59 58 57 56 56 56 56 56 56 55 54 53 52 52 52 53 56 58 59 60 59 57 57 57 55 57 59 59 62 64 63 61 58 53
69 70 72 73 74 75 75 74 73 72 71 69 67 66 63 62 62 62 61 61 61 62 63 63 63 62 62 60 58 57 56 55 55 55 55 55 55 54 53 53 52 51 51 51 53 56 58 58 59 57 54 55 55 54 56 58 58 60 62 61 61 60 54
64 65 68 70 71 71 71 71 71 70 69 67 65 63 60 58 59 58 58 58 59 59 60 61 61 61 60 58 56 55 53 53 53 54 54 54 54 53 52 51 50 50 50 50 53 56 58 58 57 56 54 53 53 53 55 57 57 58 59 59 60 60 56
60 61 65 67 68 68 67 67 68 68 65 63 62 61 58 56 56 56 55 56 57 57 58 59 60 60 58 55 54 53 51 51 53 54 53 53 52 51 50 49 49 49 49 50 52 55 58 58 55 55 54 51 50 53 54 55 56 55 55 57 58 58 56
59 60 62 63 64 64 63 63 63 63 62 59 58 58 56 53 53 52 53 54 55 55 57 58 59 58 56 53 51 50 50 51 53 53 51 51 51 50 48 47 47 47 49 50 51 55 59 57 52 53 55 51 49 52 54 54 54 53 52 54 56 54 52
58 59 60 60 59 59 59 57 56 57 57 55 54 55 54 51 50 49 50 51 52 55 57 58 57 56 53 50 48 49 49 51 52 51 50 50 50 49 47 45 45 46 48 49 50 55 58 56 51 52 54 52 49 51 53 54 53 51 51 53 53 49 47
56 58 59 58 56 55 54 53 51 52 51 51 51 51 51 50 48 47 47 48 51 55 57 56 55 53 50 47 47 48 50 51 51 50 49 49 48 47 45 43 44 46 48 48 50 54 55 54 52 51 52 52 51 51 52 53 53 52 52 54 52 47 44
54 56 56 55 52 50 49 48 48 47 46 46 47 48 48 48 48 46 46 47 50 53 54 53 52 50 48 46 47 49 51 50 49 47 47 47 46 44 43 43 44 46 46 48 50 51 51 52 52 51 50 51 52 52 52 52 52 52 53 55 53 48 44
51 53 52 50 48 46 44 43 43 42 40 41 44 45 46 47 46 45 45 46 48 50 50 49 48 46 46 47 48 50 49 48 46 46 46 45 43 42 42 43 44 45 46 48 50 49 48 50 50 49 49 50 51 51 51 51 52 51 52 54 53 49 46
48 48 46 43 43 42 39 37 37 37 36 37 40 42 42 44 44 42 42 43 45 46 46 45 43 43 45 48 49 48 46 44 44 44 44 42 41 41 42 44 43 44 46 48 47 47 48 48 48 48 49 50 50 50 50 51 52 52 52 53 50 46 45
43 42 39 38 38 37 33 30 31 32 32 33 36 38 38 39 40 38 38 39 40 41 42 41 41 43 46 47 46 44 42 42 42 42 40 39 39 41 43 43 43 44 46 46 45 46 47 46 46 47 49 49 49 49 49 49 52 53 52 53 48 42 42
38 36 35 33 32 30 27 26 26 28 29 30 31 33 33 34 35 34 34 35 36 37 38 38 40 43 45 44 42 40 39 39 39 38 37 37 39 42 42 42 42 45 45 44 43 44 44 44 44 46 47 48 48 49 49 49 50 52 52 52 48 39 38
33 32 30 27 26 25 24 23 24 25 26 26 27 28 29 30 31 31 31 31 33 34 35 37 40 42 42 40 37 36 36 36 36 35 35 36 39 42 41 41 43 44 44 43 42 42 41 42 43 44 45 47 47 48 49 48 48 50 50 51 47 39 37
29 28 26 23 23 23 22 22 23 23 23 23 25 27 28 28 29 30 29 30 31 32 35 37 39 40 38 35 34 34 33 32 32 32 34 37 39 40 40 41 43 43 42 42 41 40 40 41 42 43 44 45 45 46 46 45 46 47 48 48 44 38 37
27 25 23 21 20 20 20 20 20 20 21 23 25 26 26 27 28 29 28 28 30 32 34 36 37 36 34 32 31 30 30 29 30 32 34 37 38 38 40 42 41 40 41 41 40 39 40 41 41 42 43 43 43 43 43 43 44 44 46 47 42 35 35
25 23 20 19 18 18 19 19 19 20 21 22 23 23 24 25 26 27 27 28 29 32 33 34 33 31 29 28 27 27 27 27 29 32 35 35 36 38 40 41 40 39 39 39 39 39 39 40 41 42 43 42 42 41 40 40 41 43 45 45 40 33 32
23 20 18 18 17 18 18 19 19 20 20 20 21 22 23 24 25 26 26 27 29 31 31 31 29 27 25 25 25 25 26 27 30 32 33 34 36 38 39 39 38 38 38 38 38 38 39 40 41 42 42 42 40 40 39 38 39 41 43 43 39 32 30
19 17 16 17 18 19 20 20 20 19 19 19 20 21 22 22 23 24 25 25 27 28 27 25 24 23 23 23 24 25 27 29 30 31 32 34 36 38 37 37 37 37 37 37 37 37 38 39 40 41 41 40 40 40 39 37 37 39 42 42 38 32 29
14 14 15 17 19 19 20 19 18 17 17 19 19 19 19 20 20 21 22 22 23 23 22 21 20 20 21 22 24 26 28 29 29 30 32 34 36 36 35 35 35 35 35 36 36 37 38 39 39 39 39 39 39 39 39 38 36 37 39 40 36 32 30
11 11 13 15 18 19 18 17 16 16 17 18 17 17 16 16 17 17 18 19 19 19 19 18 18 19 21 23 25 27 28 28 29 31 33 34 34 34 34 34 34 34 34 35 35 36 37 38 38 38 38 38 37 37 38 37 37 37 38 38 35 31 30
11 11 12 14 16 17 17 16 16 16 16 16 15 15 14 14 14 15 15 16 17 17 17 17 18 19 22 24 26 26 26 27 29 31 32 32 32 32 32 32 32 33 33 34 35 36 37 37 36 36 37 37 37 36 35 35 36 36 36 36 34 30 28
13 13 13 14 15 15 16 16 15 15 15 14 14 13 13 13 13 13 13 15 16 16 16 17 19 21 23 24 25 25 26 28 30 30 31 31 31 31 31 31 31 32 32 33 35 35 35 35 35 34 35 37 37 35 34 33 34 34 34 35 33 29 27
13 14 15 15 15 15 15 15 14 14 13 13 13 13 13 13 13 13 13 15 16 16 17 18 20 22 23 23 23 24 26 28 28 29 29 29 29 29 29 30 30 31 32 33 34 34 34 33 33 33 34 35 36 35 33 32 33 33 32 32 32 29 27
13 14 15 15 15 16 16 15 14 13 12 12 13 14 14 14 14 14 15 16 17 17 18 19 20 21 22 22 23 25 26 27 27 27 28 28 28 28 29 29 30 31 32 33 33 33 33 32 32 32 33 34 34 34 32 30 31 31 31 31 30 28 26
13 14 14 15 15 15 15 14 13 12 12 13 14 14 15 15 16 16 17 18 18 18 18 19 20 21 22 23 23 24 25 25 26 26 26 27 27 27 28 29 30 30 31 32 32 32 31 31 31 31 32 32 33 33 31 29 29 30 30 30 28 26 25
12 13 14 14 15 15 15 14 14 13 14 14 15 16 16 17 17 17 18 17 17 16 17 18 20 21 22 22 23 23 24 24 25 25 25 26 26 27 28 29 29 30 31 32 31 30 30 30 31 31 31 30 31 31 31 29 28 28 29 29 27 25 24
10 11 12 13 14 14 15 14 14 14 15 16 16 16 17 17 17 16 15 15 14 16 17 19 20 20 20 21 21 22 23 23 23 24 24 25 26 27 28 29 29 30 31 30 30 29 29 29 29 29 29 29 29 30 30 30 28 28 28 28 26 24 23
8 8 8 9 10 11 11 11 12 13 15 15 15 15 15 14 14 13 13 13 15 17 18 19 19 19 19 20 21 21 21 22 22 23 24 24 26 27 28 29 30 30 30 29 29 28 28 28 28 28 28 28 28 28 29 29 28 28 28 27 25 23 21
5 5 4 4 5 5 6 8 9 10 11 12 12 13 13 13 13 13 13 14 15 16 17 17 17 18 18 19 19 20 20 21 22 23 23 25 26 27 28 29 29 29 29 28 28 28 27 27 27 27 26 27 27 27 27 28 28 27 27 26 24 22 21
Wind_Direction
265 265 265 264 265 265 265 265 264 264 264 264 264 264 264 264 264 265 264 265 265 266 267 268 268 268 266 265 266 268 271 273 276 277 277 276 275 273 272 271 270 270 271 274 276 277 277 276 276 277 277 278 280 281 281 280 278 278 277 275 274 272 269
263 264 265 265 265 265 265 265 265 264 264 264 264 264 263 263 264 264 264 265 265 265 266 267 269 268 267 265 265 267 270 272 274 276 275 274 274 273 272 271 270 270 271 274 276 277 277 276 277 277 277 278 280 281 281 281 280 279 278 276 274 273 271
263 264 265 265 265 265 265 265 265 264 264 264 264 264 264 263 263 263 264 264 265 265 266 267 268 268 267 265 265 266 269 271 273 274 274 273 272 272 271 270 270 270 272 273 275 276 277 277 279 279 278 279 280 280 279 280 280 279 278 276 275 273 272
263 264 264 264 264 264 264 264 264 264 264 264 264 264 264 264 264 263 263 263 264 265 265 266 267 268 267 266 264 265 267 270 272 272 272 271 271 271 270 270 271 271 271 271 273 275 276 278 280 281 280 281 282 281 280 279 280 279 278 276 275 274 273
263 263 264 264 264 264 263 264 264 264 263 263 264 264 264 264 264 264 263 262 263 264 265 265 266 266 266 266 264 264 267 269 271 271 270 269 270 270 270 271 272 272 271 270 272 274 276 277 279 281 282 282 283 283 282 281 280 279 278 277 277 276 274
264 265 265 266 266 266 265 265 265 265 265 264 264 264 264 265 264 263 262 262 262 263 264 264 264 265 265 265 265 265 267 269 269 269 268 268 269 270 270 271 272 273 272 272 273 274 276 278 279 281 283 284 283 283 283 283 282 281 279 278 278 277 275
265 266 266 267 268 268 268 267 267 267 267 266 265 265 265 265 265 263 262 262 262 262 262 262 263 263 264 264 265 265 267 267 267 267 267 268 269 270 271 272 273 274 274 275 276 277 278 279 280 281 283 285 284 283 282 281 281 282 282 281 280 278 276
265 265 266 266 267 267 268 269 269 269 269 269 268 267 267 266 265 264 262 261 260 260 260 261 261 262 263 264 265 266 266 266 266 266 267 268 269 270 271 273 274 275 276 277 279 280 280 281 281 281 283 284 284 283 282 280 280 281 282 283 282 280 277
265 265 265 265 265 266 267 268 269 269 269 270 270 270 269 267 265 264 262 261 259 258 258 259 260 261 262 263 265 265 265 265 265 265 266 268 269 270 272 273 275 276 278 280 281 281 281 282 281 282 283 283 284 283 281 280 280 280 281 282 282 281 278
266 266 265 265 264 264 265 266 267 268 268 269 269 270 269 268 265 264 263 261 259 257 257 258 259 261 262 263 265 265 265 265 264 264 265 267 269 271 272 274 276 277 279 281 281 282 283 282 283 283 282 282 283 282 279 278 279 279 280 281 281 281 279
270 268 266 265 265 264 264 264 265 267 267 267 268 268 268 267 265 263 262 260 257 256 256 256 258 259 261 263 263 264 264 263 262 263 265 267 269 271 272 274 276 279 280 280 282 284 283 282 283 284 282 280 281 280 278 277 277 277 279 280 280 280 279
274 271 268 266 265 265 264 264 265 266 267 266 266 267 267 266 264 262 260 258 256 254 253 254 256 259 261 262 262 263 262 261 261 263 265 267 270 271 272 275 277 279 280 282 284 284 283 283 285 284 283 282 282 281 280 279 278 278 279 279 279 279 278
274 271 269 268 267 266 265 265 264 265 266 266 266 266 266 265 263 260 257 255 253 251 251 253 255 258 260 260 261 261 260 259 261 263 265 268 270 272 274 276 278 279 280 283 285 285 284 285 286 285 284 285 284 283 283 282 281 282 282 282 280 278 276
271 269 269 268 267 265 265 265 264 264 265 265 265 264 264 264 261 258 255 251 249 248 250 252 254 257 259 259 259 258 257 258 260 263 266 268 270 273 275 277 278 279 280 283 283 283 284 286 286 285 285 286 285 284 284 284 285 286 286 285 283 279 276
267 267 267 267 266 264 263 263 263 263 263 263 263 263 263 262 260 257 253 249 247 247 249 251 253 256 257 257 256 255 256 258 261 263 266 268 271 274 276 277 277 279 281 282 281 282 284 285 284 285 285 285 285 284 284 284 285 286 286 286 284 282 278
265 265 267 267 266 264 261 260 262 262 262 261 261 262 261 260 258 256 252 249 247 247 248 250 252 254 254 253 252 253 255 258 261 263 265 269 273 275 276 275 277 279 281 281 281 283 283 283 283 284 284 284 284 284 284 285 285 285 285 284 283 282 279
265 266 267 267 265 262 260 260 261 263 262 260 259 260 259 259 258 257 253 250 248 247 248 249 250 250 250 249 250 252 255 258 261 263 267 271 274 275 275 275 277 280 280 280 281 283 283 282 284 285 284 284 284 284 286 287 287 287 286 284 282 282 279
265 266 265 264 262 261 260 259 261 262 262 259 258 258 259 259 258 256 254 250 248 247 247 247 246 245 246 247 249 252 255 258 261 265 269 273 274 274 274 276 279 279 279 279 281 281 282 283 285 285 284 284 284 285 285 286 286 286 286 284 283 281 280
264 263 262 260 259 258 258 257 258 259 259 258 258 258 258 257 255 254 251 249 247 245 244 243 242 243 245 247 250 252 255 258 262 266 270 272 273 273 274 277 279 278 278 280 280 280 281 283 284 284 284 284 284 285 285 285 285 285 285 284 283 282 280
261 259 257 256 254 253 254 254 255 255 256 256 255 255 253 252 251 250 248 246 245 243 241 240 241 243 245 248 250 253 256 260 264 267 270 270 271 273 276 278 278 278 279 280 280 280 282 283 283 283 283 283 283 283 284 284 284 283 283 283 284 284 281
259 255 253 250 248 249 250 251 252 252 252 250 249 249 248 248 248 247 244 243 242 240 239 239 241 244 246 249 251 254 257 261 264 266 267 268 271 274 277 277 277 278 281 281 282 284 285 284 284 284 282 282 282 282 283 283 283 282 283 283 284 286 282
256 252 249 246 243 243 245 246 246 247 246 245 245 246 246 245 245 244 242 240 239 239 239 240 242 245 247 250 252 256 258 261 263 264 266 268 272 275 277 277 278 280 281 282 284 286 286 285 285 284 283 283 283 283 284 285 284 284 284 284 286 286 284
253 248 245 241 235 233 237 239 238 238 240 241 243 245 244 244 243 242 240 237 237 238 240 241 243 246 249 252 254 256 258 259 261 263 266 270 273 275 276 277 279 281 282 284 286 286 287 287 287 286 285 285 284 285 285 286 286 286 285 285 287 287 284
254 248 242 235 228 224 227 230 230 232 235 237 240 242 241 240 240 239 237 235 235 238 240 242 245 248 251 253 254 255 255 257 259 263 267 271 273 274 275 278 280 281 283 285 286 287 288 288 288 287 287 287 287 287 287 286 286 286 286 287 287 286 282
261 252 241 232 223 219 222 225 226 227 230 233 236 238 238 237 236 235 234 233 234 237 240 242 245 247 250 251 252 253 254 257 260 265 269 271 272 273 276 279 281 283 285 286 288 289 290 289 288 288 288 288 289 289 289 288 287 286 287 288 288 287 283
263 256 244 233 225 220 222 224 223 224 227 230 233 234 235 234 233 232 232 232 234 236 238 240 241 243 246 248 250 252 255 259 264 268 270 270 272 275 278 280 282 284 286 288 289 290 290 289 288 288 288 289 290 290 291 290 289 287 287 288 288 288 285
248 244 239 233 227 224 222 221 219 220 223 227 228 229 229 228 228 228 229 230 231 232 233 235 237 239 242 245 249 253 258 263 266 268 269 271 274 277 279 281 284 286 288 289 290 290 289 288 288 288 289 290 290 290 290 291 291 289 288 288 288 288 284
230 224 223 224 225 224 221 219 217 218 219 221 220 219 218 218 218 219 223 226 227 228 230 231 234 237 241 246 251 256 261 264 266 267 270 273 275 278 280 283 285 287 288 290 290 289 289 288 289 290 290 290 290 289 289 290 291 291 290 289 288 287 282
228 217 212 213 216 218 218 216 215 215 214 213 210 206 204 205 206 207 216 223 225 226 228 231 234 239 245 250 255 259 262 264 266 269 272 275 277 279 282 284 286 287 289 290 289 289 288 288 290 291 291 291 291 291 291 291 290 290 290 290 289 287 281
233 220 214 211 211 212 213 212 211 209 206 201 197 193 192 195 195 198 210 221 225 226 229 234 239 244 250 254 258 260 262 265 268 271 274 276 279 282 283 285 287 288 289 289 289 288 289 289 290 291 291 290 290 291 291 291 291 290 290 290 289 287 281
239 227 219 214 212 211 211 210 207 202 195 190 188 186 187 191 193 198 209 221 226 230 234 240 245 250 254 256 258 261 264 268 270 273 276 279 281 283 284 286 288 289 289 289 289 289 289 290 290 290 289 289 290 290 291 291 291 291 291 289 288 286 280
248 236 226 218 214 212 210 207 202 196 189 188 189 190 192 196 200 205 214 223 230 236 241 246 250 253 255 257 260 264 267 270 272 275 278 280 282 283 285 287 288 289 290 289 289 289 290 290 290 289 288 288 289 291 292 292 292 292 291 290 288 284 279
261 247 236 227 219 213 208 204 199 194 192 194 198 200 203 207 212 216 222 230 236 242 247 250 251 253 256 260 263 266 269 271 275 277 279 281 282 284 286 288 289 290 289 288 289 289 290 289 289 288 288 288 290 291 292 293 292 291 291 289 287 283 278
275 260 248 238 228 220 214 209 204 201 200 203 208 211 214 219 225 229 233 237 243 246 249 250 253 256 260 263 265 268 271 274 276 278 279 281 283 285 287 289 290 289 288 288 289 289 288 287 287 287 288 289 291 292 294 295 294 293 291 289 286 282 277
291 278 267 255 243 234 228 221 215 213 214 217 220 223 226 230 234 236 237 238 242 247 250 254 258 260 263 265 267 271 274 276 277 279 281 283 285 287 288 290 289 289 289 289 289 288 286 286 285 286 287 288 289 291 292 294 294 292 291 289 286 282 275
301 293 285 276 263 253 244 237 233 231 231 231 231 230 229 230 232 234 235 239 244 250 254 258 260 263 265 268 270 273 275 276 278 280 282 284 286 288 289 289 289 289 289 289 288 287 286 285 285 285 287 288 290 291 292 292 291 290 289 288 286 282 275
Height
10046 10047 10047 10048 10049 10049 10049 10051 10052 10053 10055 10057 10058 10059 10061 10063 10064 10065 10065 10066 10068 10069 10069 10070 10074 10078 10080 10080 10079 10077 10076 10076 10076 10077 10077 10076 10075 10074 10074 10073 10074 10074 10070 10062 10055 10055 10053 10051 10056 10059 10055 10056 10058 10051 10044 10041 10040 10043 10043 10041 10041 10040 10039
10033 10033 10034 10034 10035 10035 10035 10036 10038 10040 10041 10042 10043 10045 10048 10051 10053 10052 10052 10054 10056 10056 10058 10059 10061 10065 10068 10069 10069 10067 10066 10066 10067 10068 10068 10066 10065 10064 10063 10062 10063 10064 10063 10058 10049 10044 10043 10042 10045 10048 10046 10047 10051 10044 10033 10028 10027 10028 10029 10029 10030 10029 10027
10019 10019 10020 10021 10021 10021 10022 10023 10024 10027 10029 10029 10029 10030 10034 10038 10040 10040 10040 10042 10043 10044 10046 10048 10050 10052 10055 10058 10059 10057 10056 10057 10057 10058 10058 10056 10054 10054 10052 10051 10052 10054 10054 10052 10044 10035 10034 10034 10033 10034 10034 10037 10040 10035 10026 10020 10016 10015 10015 10016 10018 10018 10016
10005 10005 10006 10008 10008 10008 10009 10010 10011 10014 10017 10018 10017 10017 10021 10025 10027 10028 10029 10030 10031 10031 10034 10037 10038 10040 10043 10047 10048 10047 10046 10047 10047 10048 10048 10046 10044 10043 10042 10041 10043 10045 10045 10045 10039 10030 10026 10027 10025 10022 10021 10025 10028 10023 10016 10012 10008 10005 10003 10004 10006 10007 10006
9994 9992 9992 9994 9995 9996 9997 9998 9999 10002 10004 10006 10006 10005 10008 10012 10014 10016 10017 10018 10019 10021 10023 10026 10028 10029 10032 10035 10036 10036 10036 10037 10038 10038 10037 10035 10033 10032 10033 10033 10033 10035 10035 10036 10033 10026 10020 10019 10017 10013 10010 10014 10018 10013 10006 10001 9998 9996 9994 9994 9995 9995 9995
9982 9981 9980 9981 9982 9984 9985 9986 9988 9990 9992 9994 9995 9994 9995 10000 10003 10005 10005 10006 10008 10011 10013 10015 10016 10018 10021 10023 10025 10025 10027 10027 10027 10027 10026 10024 10023 10024 10025 10025 10024 10025 10026 10025 10024 10019 10014 10011 10009 10006 10002 10002 10006 10004 9998 9992 9988 9984 9983 9984 9984 9983 9984
9971 9969 9969 9970 9971 9971 9973 9974 9976 9979 9980 9982 9983 9983 9984 9988 9991 9992 9994 9996 9998 10000 10002 10003 10005 10008 10010 10012 10014 10016 10017 10017 10017 10016 10015 10014 10014 10015 10016 10016 10015 10015 10016 10015 10013 10010 10007 10004 10001 9999 9996 9993 9994 9994 9990 9986 9983 9976 9971 9972 9973 9972 9974
9960 9960 9959 9960 9960 9959 9960 9962 9964 9966 9968 9969 9971 9972 9974 9977 9979 9980 9982 9985 9988 9990 9991 9993 9995 9997 9999 10001 10004 10006 10007 10007 10006 10005 10004 10003 10005 10007 10007 10007 10007 10006 10006 10005 10003 10000 9997 9996 9993 9991 9990 9986 9984 9985 9980 9977 9977 9972 9964 9963 9961 9960 9963
9950 9950 9950 9950 9950 9949 9950 9952 9953 9955 9956 9958 9960 9961 9963 9966 9967 9969 9972 9975 9977 9979 9981 9982 9984 9986 9989 9992 9995 9996 9996 9997 9996 9994 9993 9994 9996 9998 9999 9999 9998 9998 9997 9996 9994 9990 9987 9987 9985 9983 9982 9978 9976 9976 9972 9968 9968 9966 9960 9957 9953 9949 9952
9942 9942 9940 9939 9939 9940 9942 9943 9943 9944 9945 9947 9949 9951 9953 9955 9956 9959 9962 9965 9967 9969 9971 9973 9974 9976 9979 9983 9985 9986 9987 9987 9985 9984 9984 9985 9987 9989 9990 9991 9990 9989 9989 9988 9985 9980 9978 9978 9976 9974 9973 9972 9969 9967 9964 9961 9960 9958 9954 9950 9946 9941 9941
9932 9932 9930 9929 9930 9932 9933 9934 9934 9934 9936 9938 9940 9941 9943 9945 9947 9949 9952 9955 9957 9960 9962 9963 9964 9966 9970 9974 9975 9976 9977 9976 9974 9974 9976 9977 9978 9980 9982 9983 9983 9981 9980 9979 9976 9972 9968 9969 9969 9965 9962 9964 9963 9958 9956 9954 9952 9951 9949 9943 9939 9935 9932
9920 9920 9919 9919 9921 9922 9924 9925 9925 9926 9927 9929 9930 9931 9933 9936 9938 9940 9943 9945 9948 9950 9952 9953 9955 9958 9962 9964 9966 9967 9968 9966 9965 9966 9968 9968 9970 9972 9974 9975 9975 9973 9971 9969 9967 9963 9958 9959 9961 9956 9951 9953 9954 9950 9946 9944 9942 9942 9941 9936 9932 9929 9926
9909 9908 9908 9909 9911 9912 9913 9915 9916 9917 9918 9920 9921 9922 9924 9927 9929 9932 9934 9937 9939 9940 9941 9944 9946 9949 9953 9955 9957 9958 9958 9957 9957 9958 9959 9960 9962 9964 9966 9967 9967 9965 9963 9961 9959 9955 9950 9948 9951 9948 9942 9942 9944 9941 9937 9935 9932 9932 9931 9926 9923 9923 9921
9900 9899 9898 9900 9902 9903 9904 9905 9906 9908 9910 9911 9912 9914 9916 9918 9920 9923 9925 9927 9929 9931 9932 9935 9938 9941 9944 9947 9949 9949 9949 9949 9949 9950 9951 9952 9954 9957 9958 9958 9958 9956 9955 9954 9952 9948 9943 9940 9940 9940 9936 9933 9933 9932 9930 9926 9923 9923 9921 9916 9914 9914 9914
9892 9890 9890 9891 9893 9895 9896 9897 9897 9900 9902 9903 9904 9906 9908 9909 9911 9914 9917 9918 9920 9922 9924 9927 9930 9932 9935 9938 9940 9940 9940 9941 9942 9943 9943 9945 9947 9949 9950 9950 9950 9948 9947 9946 9943 9941 9938 9934 9932 9931 9929 9926 9925 9924 9922 9919 9916 9916 9913 9909 9906 9905 9905
9883 9882 9882 9884 9886 9888 9889 9889 9890 9892 9894 9895 9896 9898 9900 9901 9903 9905 9908 9910 9912 9914 9917 9919 9921 9924 9927 9929 9931 9932 9933 9934 9934 9935 9936 9938 9940 9942 9942 9942 9942 9941 9939 9937 9935 9933 9931 9928 9925 9923 9922 9920 9918 9916 9914 9911 9909 9908 9907 9903 9899 9897 9896
9875 9875 9876 9877 9878 9879 9880 9881 9882 9884 9886 9887 9889 9890 9892 9893 9894 9897 9900 9903 9905 9907 9909 9911 9914 9917 9919 9920 9923 9925 9926 9927 9927 9928 9929 9931 9933 9934 9934 9934 9934 9933 9931 9929 9928 9926 9923 9921 9918 9916 9914 9912 9911 9909 9907 9904 9901 9900 9898 9895 9893 9892 9888
9868 9868 9869 9870 9871 9872 9873 9874 9876 9877 9878 9880 9881 9883 9885 9886 9887 9890 9893 9896 9898 9900 9902 9904 9906 9908 9910 9912 9916 9919 9920 9920 9921 9921 9923 9925 9926 9926 9926 9926 9926 9924 9923 9922 9921 9919 9916 9914 9912 9909 9907 9905 9904 9902 9901 9899 9895 9893 9890 9887 9886 9887 9883
9861 9861 9862 9863 9864 9864 9865 9867 9868 9870 9871 9872 9874 9876 9878 9879 9880 9883 9886 9889 9892 9894 9895 9897 9899 9900 9902 9906 9910 9912 9913 9914 9914 9915 9917 9919 9918 9918 9919 9919 9918 9916 9915 9915 9915 9912 9910 9908 9905 9903 9900 9898 9897 9895 9894 9893 9890 9886 9884 9880 9879 9880 9879
9855 9855 9855 9856 9857 9857 9858 9860 9861 9863 9864 9865 9867 9869 9870 9872 9874 9877 9880 9883 9885 9887 9888 9890 9892 9893 9896 9900 9903 9906 9907 9908 9908 9909 9911 9912 9911 9911 9911 9912 9910 9909 9908 9908 9906 9905 9903 9901 9899 9897 9895 9893 9891 9889 9888 9887 9884 9880 9877 9874 9872 9873 9873
9848 9848 9849 9849 9850 9851 9852 9853 9855 9856 9858 9859 9860 9862 9864 9866 9868 9871 9874 9877 9878 9880 9882 9883 9885 9888 9891 9894 9898 9900 9901 9902 9903 9904 9905 9905 9904 9904 9904 9903 9903 9902 9901 9900 9898 9897 9895 9893 9892 9890 9889 9887 9885 9884 9882 9880 9878 9874 9871 9868 9866 9867 9866
9841 9842 9842 9843 9844 9844 9846 9847 9849 9851 9852 9853 9854 9856 9858 9860 9863 9865 9868 9871 9873 9874 9875 9877 9880 9882 9886 9889 9892 9894 9895 9896 9897 9898 9898 9899 9898 9898 9897 9896 9896 9896 9894 9892 9891 9889 9888 9886 9884 9883 9882 9880 9879 9877 9876 9874 9871 9868 9864 9861 9861 9861 9860
9836 9836 9837 9837 9838 9839 9840 9841 9843 9845 9846 9847 9849 9851 9853 9855 9857 9860 9863 9865 9867 9868 9870 9872 9875 9877 9881 9884 9887 9888 9890 9891 9892 9892 9892 9892 9892 9891 9890 9890 9890 9889 9887 9886 9884 9883 9881 9879 9878 9876 9874 9873 9872 9871 9870 9868 9865 9861 9858 9855 9854 9856 9855
9832 9832 9833 9833 9833 9834 9834 9835 9837 9838 9840 9842 9844 9846 9848 9850 9852 9855 9858 9860 9862 9863 9865 9868 9870 9873 9876 9879 9881 9883 9884 9886 9886 9886 9886 9886 9886 9885 9884 9884 9884 9882 9881 9880 9878 9876 9875 9873 9871 9869 9867 9866 9865 9864 9864 9863 9860 9856 9852 9849 9848 9850 9850
9829 9829 9830 9830 9829 9829 9829 9830 9831 9833 9835 9837 9839 9841 9844 9846 9848 9850 9853 9855 9857 9859 9861 9864 9866 9869 9872 9874 9876 9878 9879 9880 9880 9881 9881 9880 9879 9879 9879 9878 9877 9876 9875 9874 9872 9870 9869 9867 9865 9863 9861 9860 9859 9857 9857 9856 9855 9851 9847 9844 9843 9844 9844
9826 9827 9827 9827 9826 9825 9824 9826 9828 9830 9831 9833 9835 9837 9840 9842 9844 9846 9848 9851 9853 9856 9858 9860 9863 9865 9868 9870 9871 9873 9873 9874 9875 9875 9874 9874 9873 9873 9873 9872 9871 9870 9869 9867 9866 9865 9863 9862 9860 9858 9856 9854 9853 9851 9850 9849 9848 9846 9842 9839 9838 9838 9839
9822 9823 9824 9824 9823 9822 9822 9823 9824 9826 9827 9829 9832 9834 9837 9839 9841 9843 9845 9847 9850 9852 9855 9857 9860 9862 9864 9866 9867 9868 9868 9869 9869 9868 9868 9868 9868 9867 9867 9866 9865 9864 9863 9862 9861 9860 9858 9856 9854 9852 9850 9848 9847 9846 9845 9843 9842 9840 9837 9834 9833 9833 9834
9818 9819 9820 9820 9820 9820 9820 9820 9821 9823 9825 9827 9829 9832 9834 9836 9838 9840 9842 9844 9846 9849 9852 9854 9857 9859 9860 9861 9862 9863 9863 9863 9863 9862 9862 9862 9862 9862 9861 9861 9860 9859 9858 9857 9856 9855 9854 9851 9849 9847 9845 9843 9842 9841 9840 9838 9836 9834 9831 9829 9828 9828 9829
9815 9816 9816 9816 9817 9817 9818 9818 9819 9821 9823 9825 9827 9830 9831 9833 9835 9838 9839 9841 9843 9846 9849 9851 9853 9855 9856 9857 9857 9858 9858 9857 9857 9857 9857 9857 9857 9857 9856 9856 9855 9854 9854 9853 9852 9851 9849 9847 9844 9842 9840 9838 9836 9835 9835 9833 9832 9830 9827 9825 9823 9823 9824
9814 9813 9813 9813 9814 9815 9815 9816 9817 9819 9821 9823 9825 9827 9829 9831 9833 9835 9837 9838 9841 9844 9846 9848 9850 9851 9852 9853 9853 9852 9852 9852 9852 9852 9852 9852 9852 9852 9851 9851 9850 9850 9849 9849 9847 9846 9844 9842 9840 9838 9836 9833 9831 9830 9830 9829 9827 9825 9823 9821 9820 9819 9819
9812 9812 9812 9812 9812 9813 9813 9814 9815 9817 9819 9821 9823 9825 9827 9829 9831 9833 9834 9836 9838 9841 9844 9845 9846 9847 9848 9848 9848 9847 9847 9848 9848 9848 9848 9848 9847 9847 9847 9846 9846 9846 9845 9844 9843 9841 9839 9837 9835 9834 9832 9829 9827 9826 9825 9824 9822 9820 9819 9818 9816 9816 9815
9811 9811 9811 9811 9811 9812 9812 9813 9814 9816 9817 9819 9821 9823 9825 9826 9828 9830 9832 9834 9836 9839 9841 9842 9843 9843 9843 9843 9843 9843 9843 9844 9844 9843 9843 9843 9843 9843 9842 9842 9842 9842 9841 9839 9838 9836 9834 9833 9831 9830 9828 9825 9823 9821 9820 9820 9818 9816 9815 9814 9813 9812 9811
9810 9810 9810 9810 9810 9810 9811 9812 9813 9814 9816 9817 9819 9821 9823 9825 9827 9828 9830 9832 9834 9836 9838 9838 9839 9839 9839 9839 9839 9840 9840 9840 9840 9840 9840 9839 9839 9839 9838 9838 9838 9837 9836 9835 9833 9832 9830 9829 9827 9825 9823 9821 9819 9817 9815 9815 9814 9812 9811 9810 9809 9808 9808
9809 9810 9810 9810 9810 9810 9810 9811 9812 9813 9815 9816 9818 9820 9822 9824 9826 9827 9829 9830 9832 9833 9834 9834 9835 9835 9836 9836 9836 9836 9837 9837 9837 9837 9836 9836 9835 9835 9835 9835 9834 9833 9832 9831 9829 9828 9827 9825 9823 9821 9819 9817 9815 9813 9811 9810 9809 9808 9807 9806 9805 9804 9804
9808 9809 9810 9810 9810 9811 9811 9811 9812 9814 9815 9816 9818 9820 9822 9823 9824 9826 9827 9827 9828 9829 9830 9831 9831 9832 9833 9833 9833 9834 9834 9834 9834 9833 9833 9833 9832 9832 9832 9831 9830 9829 9828 9826 9825 9824 9823 9821 9820 9818 9816 9814 9812 9810 9808 9806 9805 9804 9803 9802 9801 9800 9800
9808 9808 9809 9809 9810 9811 9811 9812 9813 9814 9815 9817 9818 9819 9820 9821 9822 9823 9824 9825 9826 9827 9827 9828 9829 9829 9830 9830 9831 9831 9831 9831 9831 9830 9830 9830 9830 9829 9829 9828 9826 9825 9824 9822 9821 9820 9819 9817 9816 9814 9812 9810 9808 9806 9804 9802 9801 9800 9799 9798 9797 9796 9796